Flag for Japan Weather past 2 weeks in Kawasaki, Japan

50 °F

Passing clouds.

Feels Like: 47 °F
Forecast: 49 / 56 °F
Wind: 8 mph from Southwest

Location: Tokyo International Airport

Current Time: Nov 27, 2015 at 5:12:50 AM

Latest Report: Nov 27, 2015 at 4:30 AM

Visibility: N/A

Pressure: 29.65 "Hg

Humidity: 62%

Dew point: 37 °F

Location of KawasakiLocation

Historic Weather in Kawasaki — Graph


Kawasaki temperature yesterday

Maximum temperature yesterday: 54 °F (at 2:30 PM)
Minimum temperature yesterday: 45 °F (at 12:00 AM)
Average temperature yesterday: 49 °F

Past Weeks' High & Low Weather Summary

High75 °F (Nov 17, 12:00 PM)100% (Nov 14, 5:30 PM)30.48 "Hg (Nov 14, 5:30 PM)
Low45 °F (Nov 25, 11:00 PM)36% (Nov 27, 2:00 AM)29.62 "Hg (Nov 27, 12:00 AM)
Average58 °F80%30.10 "Hg
* Reported Nov 12 4:00 AM — Nov 27 4:00 AM, Kawasaki, Weather by CustomWeather, © 2015

Note: Actual official high and low records may vary slightly from our data, if they occured in-between our weather recording intervals... More about our weather records


Kawasaki weather history for previous 24 hours

Time TempWeatherWind HumidityBarometerVisibility
4:00 AM
Fri, Nov 27
50 °FPassing clouds.8 mph58%29.65 "HgN/A
3:30 AM52 °FPassing clouds.10 mph50%29.65 "HgN/A
3:00 AM54 °FPassing clouds.16 mph41%29.62 "HgN/A
2:30 AM55 °FPassing clouds.15 mph38%29.62 "HgN/A
2:00 AM57 °FPassing clouds.16 mph36%29.62 "HgN/A
1:30 AM57 °FPassing clouds.14 mph51%29.62 "HgN/A
1:00 AM54 °FPassing clouds.9 mph77%29.62 "HgN/A
12:30 AM54 °FPassing clouds.9 mph82%29.62 "HgN/A
12:00 AM50 °FPassing clouds.5 mph94%29.62 "HgN/A
11:30 PM
Thu, Nov 26
52 °FPassing clouds.8 mph88%29.65 "HgN/A
11:00 PM52 °FPartly cloudy.8 mph94%29.65 "HgN/A
10:30 PM54 °FPartly cloudy.2 mph88%29.65 "HgN/A
10:00 PM50 °FPassing clouds.1 mph94%29.65 "HgN/A
9:30 PM52 °FPartly cloudy.1 mph94%29.68 "HgN/A
9:00 PM52 °FPassing clouds.2 mph94%29.68 "HgN/A
8:30 PM52 °FPassing clouds.2 mph94%29.68 "HgN/A
8:00 PM52 °FPassing clouds.2 mph88%29.68 "HgN/A
7:30 PM52 °FPassing clouds.3 mph88%29.68 "HgN/A
7:00 PM52 °FPassing clouds.3 mph88%29.68 "HgN/A
6:30 PM52 °FPassing clouds.2 mph88%29.71 "HgN/A
6:00 PM52 °FPassing clouds.2 mph88%29.71 "HgN/A
5:30 PM52 °FPassing clouds.5 mph88%29.71 "HgN/A
5:00 PM52 °FPassing clouds.3 mph88%29.68 "HgN/A
4:30 PM52 °FPassing clouds.6 mph82%29.68 "HgN/A
4:00 PM52 °FPartly sunny.7 mph88%29.68 "HgN/A
3:30 PM54 °FPartly sunny.10 mph82%29.68 "HgN/A
3:00 PM54 °FPartly sunny.8 mph82%29.68 "HgN/A
2:30 PM54 °FPartly sunny.10 mph77%29.68 "HgN/A
2:00 PM52 °FPartly sunny.15 mph82%29.68 "HgN/A
1:30 PM52 °FPartly sunny.13 mph82%29.68 "HgN/A
12:30 PM52 °FPartly sunny.13 mph82%29.68 "HgN/A
12:00 PM52 °FPartly sunny.10 mph82%29.71 "HgN/A
11:30 AM50 °FPartly sunny.13 mph88%29.71 "HgN/A
11:00 AM48 °FBroken clouds.14 mph94%29.71 "HgN/A
10:30 AM48 °FSprinkles. Partly sunny.17 mph94%29.74 "HgN/A
10:00 AM48 °FSprinkles. Partly sunny.17 mph87%29.77 "HgN/A
9:30 AM46 °FLight rain. Broken clouds.20 mph93%29.77 "HgN/A
8:30 AM46 °FLight rain. Partly sunny.17 mph87%29.80 "HgN/A
8:00 AM46 °FLight rain. Partly sunny.20 mph93%29.77 "HgN/A
7:30 AM46 °FLight rain. Broken clouds.21 mph93%29.77 "Hg5 mi
7:00 AM46 °FRain. Broken clouds.18 mph93%29.80 "Hg6 mi
6:30 AM46 °FRain. Broken clouds.16 mph87%29.83 "Hg4 mi
6:00 AM45 °FRain. Passing clouds.17 mph93%29.83 "Hg6 mi
5:30 AM46 °FRain. Partly cloudy.20 mph87%29.83 "Hg4 mi
5:00 AM45 °FRain. Partly cloudy.22 mph93%29.83 "Hg4 mi
Weather by CustomWeather, © 2015

See weather overviewHow to use our weather pages